Location: Allos
(44.2333°N, 6.6333°E)
Time: 06:03:31
(UTC+00:00)

CZ-4 R/B - Pass Details

Date: 01 December 2020
Orbit: 532 x 598 km, 97.7° (Epoch: 27 January)

Event Time Altitude Azimuth Distance (km) Brightness Sun altitude
Rises 19:09:37 0° 205° (SSW) 2,711 5.1 -34.0°
Enters shadow 19:10:41 - 212° (SSW) 2,333 4.8 -34.2°
Exits shadow 19:16:40 14° 298° (WNW) 1,628 4.3 -35.3°
Drops below altitude 10° 19:17:36 10° 310° (NW) 1,849 4.5 -35.5°
Sets 19:20:30 0° 331° (NNW) 2,792 5.3 -36.0°
